www.pogodaiklimat.ru

Погода и климат >> Архив погоды >> Кувейт >> Остров Файлака


ПОГОДА Остров Файлака

  • Прогноз погоды Остров Файлака
  • Монитор погоды Остров Файлака

АРХИВ ПОГОДЫ Остров Файлака

Время (UTC), дата Ветер
(напр.,м/с)
 
Видим.   Явления Облачность Т
(С)
Тd
(С)
f
(%)
Тe
(С)
Тes
(С)
Комфортность P
(гПа)
Po
(гПа)
Тmin
(С)
Tmax
(С)
R
(мм)
R24
(мм)
S
(см)
15 20.05 ЮВ 5-7
{9}
н/о н/о +30.0 +18.5 50 +35 +35 очень
душно
1006.4 1005.8
18 20.05 ЮВ 2-3
{9}
н/о н/о +28.0 +20.9 65 +35 +35 очень
душно
1008.1 1007.5
21 20.05 С 12-16
{16}
н/о н/о +29.1 +21.4 63 +37 +37 очень
душно
1010.9 1010.3 +25.9 +34.2
00 21.05 СВ 6-9
{19}
н/о н/о +28.4 +15.6 46 +31 +31 душно 1008.7 1008.1
03 21.05 В 4-5
{12}
н/о н/о +27.5 +19.6 62 +33 +33 очень
душно
1009.2 1008.6
06 21.05 СЗ 2-4
{12}
н/о н/о +31.8 +20.0 50 +38 +38 очень
душно
1010.2 1009.6
09 21.05 В 3-5
{6}
н/о н/о +33.5 +21.8 50 +42 +42 опасность
перегрева
1010.5 1009.9
12 21.05 В 3-5
{7}
н/о н/о +35.5 +13.3 26 +36 +36 очень
жарко
1009.1 1008.5
15 21.05 Ю 5-7
{8}
н/о н/о +29.9 +22.9 66 +40 +40 очень
душно
1009.0 1008.4
18 21.05 З 3-3
{10}
н/о н/о +30.5 +17.6 46 +35 +35 очень
душно
1009.9 1009.3
21 21.05 СЗ 4-7
{15}
н/о н/о +30.6 +16.3 42 +34 +34 очень
душно
1009.6 1009.0 +26.9 +36.2
00 22.05 СЗ 5-6
{15}
н/о н/о +28.8 +18.4 53 +34 +34 очень
душно
1009.2 1008.6
03 22.05 СЗ 3-4
{7}
н/о н/о +28.2 +19.4 59 +34 +34 очень
душно
1010.0 1009.4
06 22.05 З 7-9
{9}
н/о н/о +35.1 +16.0 32 +37 +37 очень
душно
1011.0 1010.4
09 22.05 Ю 4-6
{9}
н/о н/о +35.4 +19.8 40 +41 +41 опасность
перегрева
1010.1 1009.5
12 22.05 Ю 5-7
{9}
н/о н/о +35.0 +18.1 37 +39 +39 очень
душно
1008.4 1007.8
15 22.05 ЮВ 5-6
{8}
н/о н/о +31.7 +20.6 52 +39 +39 очень
душно
1007.6 1007.0
18 22.05 Ю 3-4
{8}
н/о н/о +29.3 +22.5 67 +39 +39 очень
душно
1008.5 1007.9
21 22.05 ЮЗ 3-4
{5}
н/о н/о +28.9 +21.1 63 +36 +36 очень
душно
1008.3 1007.7 +27.0 +37.6
00 23.05 З 3-3
{5}
н/о н/о +26.4 +23.0 82 +35 +35 очень
душно
1007.7 1007.1
03 23.05 З 4-5
{5}
н/о н/о +28.8 +21.7 66 +37 +37 очень
душно
1008.6 1008.0
06 23.05 З 7-8
{8}
н/о н/о +35.4 +13.7 27 +36 +36 очень
жарко
1009.2 1008.6
09 23.05 С 5-8
{9}
н/о н/о +40.3 +13.0 20 +40 +40 очень
жарко
1008.0 1007.5
12 23.05 С 6-9
{9}
н/о н/о +39.7 +14.2 22 +40 +40 очень
душно
1006.4 1005.9
15 23.05 С 6-8
{10}
н/о н/о +35.8 +17.7 34 +39 +39 очень
душно
1006.3 1005.7
18 23.05 С 4-6
{10}
н/о н/о +32.0 +18.9 46 +37 +37 очень
душно
1007.3 1006.7
21 23.05 СЗ 4-5
{6}
н/о н/о +29.2 +18.3 52 +34 +34 очень
душно
1007.4 1006.8 +25.8 +41.1
00 24.05 СЗ 4-5
{6}
н/о н/о +27.8 +17.3 53 +32 +32 душно 1006.7 1006.1
03 24.05 СЗ 5-7
{7}
н/о н/о +29.5 +16.1 44 +33 +33 душно 1007.4 1006.8
06 24.05 СЗ 4-6
{8}
н/о н/о +34.5 +12.0 26 +35 +35 очень
жарко
1008.7 1008.1
09 24.05 С 3-5
{6}
н/о н/о +37.4 +14.5 26 +38 +38 душно 1007.9 1007.3
12 24.05 ЮЗ 3-5
{6}
н/о н/о +39.5 +7.3 14 +37 +37 очень
жарко
1006.8 1006.2
15 24.05 Ю 3-4
{5}
н/о н/о +35.0 +18.4 38 +39 +39 очень
душно
1006.4 1005.8
18 24.05 Ю 2-3
{5}
н/о н/о +31.4 +24.0 65 +43 +43 опасность
перегрева
1007.5 1006.9
21 24.05 З 2-2
{3}
н/о н/о +27.6 +22.5 74 +36 +36 очень
душно
1008.0 1007.4 +26.4 +41.0
00 25.05 Ю 3-4
{5}
н/о н/о +29.2 +23.3 71 +40 +40 очень
душно
1007.9 1007.3
03 25.05 ЮЗ 3-3
{4}
н/о н/о +28.8 +22.0 67 +37 +37 очень
душно
1009.4 1008.8
06 25.05 ЮЗ 4-5
{6}
н/о н/о +36.0 +14.8 28 +37 +37 душно 1010.1 1009.5
09 25.05 Ю 5-6
{7}
н/о н/о +37.9 +14.3 25 +39 +39 очень
душно
1008.9 1008.3
12 25.05 Ю 4-6
{8}
н/о н/о +39.7 +7.8 15 +38 +38 очень
жарко
1007.3 1006.7
15 25.05 Ю 3-4
{5}
н/о н/о +36.5 +17.1 32 +39 +39 очень
душно
1006.1 1005.5
18 25.05 Ю 3-5
{6}
н/о н/о +31.8 +23.9 63 +43 +43 опасность
перегрева
1006.7 1006.1
21 25.05 Ю 4-5
{8}
н/о н/о +30.9 +21.9 59 +40 +40 очень
душно
1006.5 1005.9 +25.7 +40.3
00 26.05 Ю 4-5
{9}
н/о н/о +29.9 +21.6 61 +38 +38 очень
душно
1006.2 1005.6
03 26.05 З 3-3
{5}
н/о н/о +30.1 +23.7 69 +41 +41 опасность
перегрева
1006.8 1006.2
06 26.05 З 6-7
{7}
н/о н/о +39.5 +8.6 16 +38 +38 очень
жарко
1007.6 1007.0
09 26.05 В 5-9
{9}
н/о н/о +39.9 +18.5 29 +44 +44 опасность
перегрева
1006.8 1006.3
12 26.05 ЮВ 5-7
{11}
н/о н/о +40.3 +14.9 23 +41 +41 опасность
перегрева
1004.9 1004.4
15 26.05 Ю 4-6
{7}
н/о н/о +33.8 +23.7 56 +45 +45 опасность
перегрева
1004.5 1003.9
18 26.05 ЮВ 2-3
{7}
н/о н/о +31.1 +24.4 68 +44 +44 опасность
перегрева
1005.8 1005.2
21 26.05 Ю 4-6
{12}
н/о н/о +30.7 +24.1 68 +43 +43 опасность
перегрева
1005.9 1005.3 +28.1 +43.4
00 27.05 Ю 3-4
{12}
н/о н/о +30.9 +21.6 58 +39 +39 очень
душно
1005.5 1004.9
03 27.05 СЗ 1-1
{5}
н/о н/о +30.0 +22.8 65 +40 +40 очень
душно
1006.1 1005.5
06 27.05 Ю 3-4
{8}
н/о н/о +35.3 +20.8 43 +42 +42 опасность
перегрева
1007.1 1006.5
09 27.05 В 6-8
{12}
н/о н/о +34.0 +25.3 61 +48 +48 опасность
перегрева
1007.1 1006.5
12 27.05 В 5-7
{12}
н/о н/о +39.5 +15.4 24 +41 +41 опасность
перегрева
1005.0 1004.5

 

Местоположение метеостанции Остров Файлака (Кувейт): широта 29.47 долгота 48.28 высота над уровнем моря 5 м.

В архиве по умолчанию представлена погода Остров Файлака за последнюю неделю. Архивные данные за месяц целиком и за предыдущие месяцы, начиная с января 2011 года, Вы можете получить, выбрав интересующий диапазон дат из раскрывающегося списка и нажав кнопку "Ввод!".


*Определитесь, кто Вы:
робот инопланетянин человек

Внимание! Время в таблицах - всемирное. Для получения местного времени необходимо прибавить поправку, которая равна 3 ч.

Смотрите также архив погоды в соседних городах и на ближайших метеорологических станциях:

Погода в Аль-Шуаиба (Кувейт) (22 км)
Погода в Кувейт Сити (Кувейт) (27 км)
Погода на Бубияне (Кувейт) (35 км)
Погода на Экспериментальной ферме (Кувейт) (39 км)
Погода в Эль-Кувейте (Кувейт) (41 км)
Погода на Метеостанции Sabriyah (Кувейт) (52 км)
Погода в Сулайбии (Кувейт) (59 км)
Погода в Эль-Фао (Ирак) (61 км)
Погода в Эль-Джахра (Кувейт) (61 км)
Погода в Порту Juluiah (Кувейт) (67 км)

Пояснения к столбцам:

Ветер - указаны скорость ветра в м/с - средняя за 10 мин, порывы в срок и между сроками (в фигурных скобках) и направление, откуда дует ветер: С - северный, СВ - северо-восточный, В - восточный, ЮВ - юго-восточный, Ю - южный, ЮЗ - юго-западный, З - западный, СЗ - северо-западный.
Видимость - горизонтальная дальность видимости в метрах или километрах. При видимости от 1 до 10 км при отсутствии осадков обычно наблюдается дымка, при ухудшении видимости до 1 км и менее - туман. В сухую погоду видимость может ухудшаться дымом, пылью или мглою.
Явления - указаны атмосферные явления, наблюдавшиеся в срок или в последний час перед сроком; фигурными скобками обозначены явления, наблюдавшиеся между сроками (за 1-3 часа до срока); квадратными скобками обозначены град или гололедные отложения с указанием их диаметра в мм.
Облачность - указаны через наклонную черту общая и нижняя облачность в баллах и высота нижней границы облаков в метрах; квадратными скобками обозначены формы облаков: Ci - перистые, Cs - перисто-слоистые, Cc - перисто-кучевые, Ac - высококучевые, As - высокослоистые, Sc - слоисто-кучевые, Ns - слоисто-дождевые, Cu - кучевые, Cb - кучево-дождевые. Подробнее классификацию облаков см. в Атласе облаков (PDF).
T - Температура воздуха - температура, измеренная на высоте 2 м над землей.
Td - Температура точки росы - температура, при понижении до которой содержащийся в воздухе водяной пар достигнет насыщения.
f - Относительная влажность воздуха - влажноcть воздуха, измеренная на высоте 2 м над землей.
Te - Эффективная температура - температура, которую ощущает одетый по сезону человек в тени. Характеристика душности погоды. При расчете учитывается влияние влажности воздуха и скорости ветра на теплоощущения человека.
Tes - Эффективная температура на солнце - температура, которую ощущает человек, с поправкой на солнечный нагрев. Характеристика знойности погоды. Зависит от высоты солнца над горизонтом, облачности и скорости ветра. Ночью, в пасмурную погоду, а также при ветре 12 м/с и более поправка равна нулю.
P - Атмосферное давление - приведенное к уровню моря атмосферное давление.
Po - Атмосферное давление - измеренное на уровне метеостанции атмосферное давление.
Tmin - Минимальная температура - минимум температуры воздуха на высоте 2 м над землей.
Tmax - Максимальная температура - максимум температуры воздуха на высоте 2 м над землей.
R - Количество осадков - Количество выпавших осадков за период времени, мм. При наведении курсора мыши на число - период времени, за который выпало указанное количество осадков.
R24 - Количество осадков - Количество выпавших осадков за 24 часа, мм.
S - Снежный покров - Высота снежного покрова, см. При наведении курсора мыши на число - состояние снежного покрова и степень покрытия местности в баллах.